Total_Precipitation_Accumulation
2.93 2.95 2.83 2.90 2.86 3.09 3.50 4.08 4.00 4.16 4.08 3.67 3.21 3.07 3.12 2.93 2.85 2.82 2.40 2.38 2.61 2.70 2.79 2.82 2.81 2.76 2.76 2.64 2.44 2.25 2.06 1.90 1.64 1.35 1.15 1.10 1.21 1.21 1.08 0.97 0.89 0.80 0.73
2.72 2.69 2.68 2.91 2.93 2.86 3.01 3.49 3.62 4.02 3.98 3.62 3.06 2.83 2.80 2.84 2.66 2.64 2.50 2.47 2.57 2.45 2.53 2.89 3.21 3.33 3.21 3.03 2.83 2.59 2.34 2.18 1.88 1.49 1.29 1.21 1.09 1.09 1.12 1.02 0.93 0.85 0.73
2.44 2.44 2.55 2.59 2.63 2.51 2.60 2.82 3.01 3.28 3.25 3.11 3.00 2.82 2.69 2.61 2.42 2.48 2.55 2.47 2.22 2.33 2.48 2.70 3.01 3.24 3.42 3.58 3.48 3.20 2.89 2.47 2.06 1.67 1.38 1.20 1.08 0.96 0.93 0.92 0.91 0.85 0.70
1.97 2.08 2.13 2.13 2.15 1.98 2.08 2.45 2.52 2.77 2.95 2.98 3.07 2.81 2.59 2.67 2.47 2.47 2.44 2.49 2.54 2.22 2.52 2.64 2.77 2.89 3.25 3.60 3.76 3.83 3.46 2.86 2.35 1.99 1.66 1.36 1.17 0.99 0.85 0.79 0.81 0.82 0.71
1.84 1.98 2.10 2.15 1.84 1.82 1.90 1.76 2.22 2.48 2.69 2.72 2.33 2.45 2.23 2.29 2.25 1.98 2.06 2.02 2.26 2.31 2.49 2.42 2.58 2.64 3.00 3.73 4.23 4.46 4.26 3.54 2.84 2.43 2.18 1.86 1.60 1.32 1.05 0.89 0.80 0.74 0.67
1.92 2.23 2.02 1.90 1.71 1.96 2.19 2.25 2.57 2.51 2.41 2.44 2.04 2.14 1.99 1.83 1.90 1.82 1.74 1.81 1.89 1.81 2.19 2.42 2.48 2.19 2.53 3.31 4.00 4.36 4.55 4.36 3.72 3.07 2.76 2.55 2.34 1.90 1.40 1.10 0.93 0.83 0.75
2.08 2.37 2.14 2.37 2.04 2.02 2.13 2.17 2.37 2.30 2.08 2.01 2.43 2.53 2.00 1.57 1.60 1.53 1.52 1.72 1.69 1.76 2.12 2.42 2.58 2.56 2.35 2.25 2.51 3.16 3.93 4.60 4.66 3.99 3.44 3.17 2.97 2.43 1.75 1.47 1.29 1.07 0.96
2.02 2.06 2.38 2.17 2.16 2.23 2.26 2.33 2.45 2.40 2.14 2.08 2.49 2.88 2.51 2.41 2.11 1.42 1.50 1.62 1.63 1.88 1.95 1.95 2.22 2.61 2.47 2.54 1.91 1.88 2.71 3.52 4.41 4.51 4.04 3.57 3.32 2.84 2.22 1.88 1.61 1.40 1.26
1.70 1.88 2.03 2.04 2.25 2.03 2.34 2.56 2.49 2.55 2.52 2.31 2.35 2.77 2.81 2.71 2.25 1.76 1.43 1.44 1.63 1.97 1.99 2.01 1.92 2.19 2.45 2.69 2.56 2.02 2.05 2.24 3.14 4.20 4.46 3.94 3.31 2.85 2.53 2.37 2.14 1.81 1.61
1.66 1.76 1.88 2.14 2.30 2.05 2.50 2.14 2.25 2.47 2.63 2.42 2.33 2.18 2.27 2.50 2.59 2.38 1.92 1.53 1.53 1.71 1.90 1.78 1.78 2.08 2.38 2.47 2.52 1.93 1.60 1.55 2.19 3.27 4.01 4.08 3.60 3.04 2.68 2.65 2.82 2.67 2.25
1.71 1.60 1.85 2.10 2.24 2.14 2.27 2.31 2.57 2.43 2.37 2.35 2.38 2.41 2.48 2.44 2.25 2.42 2.36 2.07 1.81 1.42 1.35 1.48 1.64 1.83 2.07 2.33 2.61 2.06 1.65 1.60 1.68 2.07 2.60 3.06 3.26 3.08 2.86 2.95 3.35 3.58 3.34
1.68 1.62 1.84 2.11 2.07 2.11 2.29 2.28 2.39 2.35 2.41 2.50 2.34 2.25 2.44 2.41 2.35 2.44 2.17 1.98 1.92 1.41 1.23 1.25 1.38 1.69 1.89 2.13 2.21 1.84 1.75 1.94 1.87 1.78 1.79 1.98 2.34 2.58 2.66 2.82 3.23 3.75 4.01
1.63 1.69 1.84 2.10 2.03 2.08 2.15 2.38 2.41 2.34 2.38 2.42 2.26 2.13 2.10 1.97 2.09 2.26 2.35 2.07 1.85 1.39 1.42 1.28 1.35 1.51 1.55 1.99 2.35 2.28 1.95 2.04 1.91 1.81 1.79 1.75 1.81 1.96 2.06 2.24 2.61 3.07 3.55
1.72 1.68 1.83 1.86 1.86 1.95 2.01 2.46 2.28 2.22 2.32 2.26 2.01 2.25 2.13 1.81 1.93 2.08 2.34 2.60 2.33 1.86 1.79 1.64 1.53 1.61 1.73 2.05 2.31 2.45 2.04 2.00 1.75 1.63 1.55 1.48 1.48 1.52 1.61 1.70 1.82 2.00 2.26
1.80 1.72 1.68 1.72 1.79 1.96 2.15 2.34 2.24 2.29 2.43 2.22 2.11 2.27 2.10 1.86 1.84 1.82 2.14 2.55 2.82 2.52 2.15 1.96 1.83 1.81 1.89 1.98 2.21 2.07 2.12 2.14 1.90 1.65 1.45 1.36 1.32 1.28 1.25 1.29 1.35 1.38 1.43
1.68 1.73 1.78 1.77 1.85 1.96 2.17 2.35 2.34 2.48 2.56 2.38 2.29 2.30 2.16 1.96 2.04 1.89 1.97 2.30 2.58 2.78 2.45 1.80 1.82 1.76 1.88 1.78 2.09 1.96 2.10 2.10 1.80 1.64 1.46 1.38 1.30 1.24 1.20 1.20 1.24 1.31 1.33
1.75 1.76 1.84 1.87 1.89 1.94 2.13 2.29 2.20 2.45 2.57 2.60 2.41 2.32 2.23 2.23 2.23 2.07 2.15 2.29 2.37 2.68 2.63 2.02 1.89 2.01 2.10 2.05 2.13 2.04 1.96 1.98 1.81 1.74 1.50 1.37 1.27 1.20 1.20 1.16 1.16 1.15 1.19
1.87 1.87 1.93 2.03 2.00 2.02 2.16 2.16 2.03 2.14 2.33 2.51 2.72 2.82 2.55 2.49 2.46 2.27 2.28 2.29 2.34 2.56 2.60 2.38 2.17 2.17 2.25 2.23 2.23 2.04 1.73 1.65 1.69 1.84 1.67 1.49 1.34 1.24 1.18 1.14 1.12 1.10 1.10
2.10 2.12 2.18 2.14 2.16 2.20 2.19 2.12 2.13 2.15 2.24 2.33 2.57 2.79 2.77 2.87 2.59 2.56 2.48 2.37 2.32 2.30 2.48 2.35 2.16 2.31 2.35 2.35 2.30 1.95 1.78 1.81 1.66 1.88 1.83 1.55 1.38 1.28 1.18 1.10 1.05 1.03 1.02
2.26 2.29 2.35 2.30 2.25 2.28 2.29 2.28 2.26 2.22 2.28 2.28 2.33 2.42 2.54 2.81 2.77 2.79 2.61 2.59 2.64 2.61 2.67 2.56 2.44 2.53 2.67 2.68 2.55 2.21 2.06 1.95 1.82 1.65 1.76 1.58 1.49 1.42 1.29 1.15 1.06 1.00 0.99
2.34 2.50 2.50 2.43 2.45 2.46 2.27 2.37 2.54 2.51 2.57 2.39 2.30 2.26 2.23 2.45 2.53 2.56 2.31 2.44 2.67 2.70 2.71 2.66 2.61 2.66 2.69 2.83 2.54 2.35 2.19 2.15 2.03 1.77 1.67 1.47 1.43 1.35 1.32 1.30 1.22 1.10 1.03
2.71 2.64 2.53 2.58 2.58 2.36 2.48 2.52 2.43 2.46 2.64 2.64 2.52 2.45 2.31 2.25 2.23 2.27 2.29 2.36 2.47 2.46 2.50 2.56 2.50 2.54 2.61 2.74 2.85 2.72 2.51 2.31 2.06 1.80 1.80 1.57 1.45 1.40 1.29 1.19 1.28 1.24 1.14
2.78 2.66 2.65 2.70 2.63 2.65 2.60 2.38 2.23 2.23 2.29 2.38 2.44 2.43 2.16 2.02 2.22 2.14 2.30 2.33 2.16 2.09 2.08 2.18 2.20 2.24 2.66 2.94 3.23 2.92 2.73 2.54 2.24 2.06 1.97 1.63 1.49 1.40 1.28 1.25 1.37 1.21 1.11
2.85 2.79 2.73 2.60 2.52 2.42 2.43 2.20 2.18 2.07 2.00 1.95 2.07 2.19 2.15 2.06 2.09 2.18 2.12 1.91 1.73 1.73 1.77 1.67 1.68 1.93 2.36 2.89 3.19 3.16 3.13 2.87 2.53 2.13 1.93 1.66 1.43 1.34 1.25 1.27 1.43 1.31 1.16
2.78 2.63 2.50 2.44 2.39 2.44 2.61 2.36 2.22 2.01 2.00 1.86 1.84 1.85 1.89 1.79 1.91 2.00 1.92 1.71 1.58 1.53 1.56 1.57 1.54 1.71 1.99 2.32 2.73 2.94 2.82 2.63 2.24 1.82 1.68 1.58 1.43 1.43 1.36 1.24 1.25 1.39 1.29
2.98 2.94 2.79 2.67 2.56 2.53 2.72 2.45 2.26 2.04 2.02 1.95 1.95 1.95 2.02 1.79 1.70 1.65 1.59 1.60 1.43 1.33 1.45 1.44 1.40 1.43 1.53 1.81 2.25 2.34 2.35 2.41 2.14 1.81 1.54 1.60 1.50 1.63 1.54 1.29 1.19 1.22 1.25